Regional Weather Roundup
Issued by NWS Charleston, SC

Current Version | Previous Version | Text Only | Print | Product List | Glossary Off
Versions: 1 2 3 4 5 6 7 8 9 10 11 12 13 14 15 16 17 18 19 20 21 22 23 24 25 26 27 28 29 30 31 32 33 34 35 36 37 38 39 40 41 42 43 44 45 46 47 48 49 50
000 ASUS42 KCHS 280810 RWRCHS REGIONAL WEATHER ROUNDUP NATIONAL WEATHER SERVICE CHARLESTON SC 300 AM EST WED JAN 28 2015 NOTE: "FAIR" INDICATES FEW OR NO CLOUDS BELOW 12,000 FEET WITH NO SIGNIFICANT WEATHER AND/OR OBSTRUCTIONS TO VISIBILITY. NOT ALL STATIONS ARE QUALITY CONTROLLED BY THE NATIONAL WEATHER SERVICE. USE DATA WITH CAUTION...ESPECIALLY DEWPOINT OBSERVATIONS. SCZ027-030-031-034>040-042>050-280900- ...SOUTHEAST SOUTH CAROLINA... CITY SKY/WX TMP DP RH WIND PRES REMARKS N CHARLESTON CLEAR 32 26 78 N7 30.07R WCI 26 WATERFRONT PRK NOT AVBL MOUNT PLEASANT FAIR N/A N/A N/A CALM 30.06R PINOPOLIS NOT AVBL MONCKS CORNER FAIR 41 25 52 N7 30.06R SUMMERVILLE NOT AVBL BEAUFORT MCAS CLEAR 38 30 73 NW7 30.09R WCI 33 BEAUFORT ARPT FAIR 39 32 75 NW10 30.09R WCI 32 HILTON HEAD IS CLEAR 43 30 61 N14 30.10R WALTERBORO SUNNY 34 28 80 NW3 30.09R ALLENDALE FAIR 36 27 69 CALM 30.10R ...SOUTHERN MIDLANDS AND PEE DEE... CITY SKY/WX TMP DP RH WIND PRES REMARKS GEORGETOWN NOT AVBL KINGSTREE NOT AVBL ORANGEBURG CLEAR 33 25 72 NW5 30.08R WCI 29 BARNWELL N/A 32 28 86 W3 30.10R AIKEN FAIR 30 27 86 CALM 30.11R MANNING FAIR 30 30 100 CALM 30.07R COLUMBIA FAIR 36 24 62 N6 30.09R WCI 31 SUMTER CLEAR 34 21 58 NW7 30.06 WCI 28 FLORENCE CLEAR 34 20 56 N10 30.06R WCI 26 MYRTLE BEACH CLEAR 36 19 51 NW6 30.07R WCI 31 N MYRTLE BEACH CLEAR 35 17 47 N5 30.04R WCI 31 $$ GAZ063-065-086>088-099>101-113>116-118-119-134>141-150-280900- ...SOUTHEAST GEORGIA... CITY SKY/WX TMP DP RH WIND PRES REMARKS SAVANNAH ARPT CLEAR 38 29 70 NW7 30.10R WCI 33 HUNTER AAF CLEAR 38 30 73 NW8 30.07 WCI 32 FORT STEWART CLEAR 37 30 75 NW5 30.09 WCI 33 STATESBORO CLEAR 33 31 90 NW3 30.10R SYLVANIA SUNNY 32 31 95 CALM 30.11R CLAXTON FAIR 36 32 87 NW3 30.10S ...CSRA...CENTRAL AND FAR SOUTHEAST GEORGIA... CITY SKY/WX TMP DP RH WIND PRES REMARKS THOMSON CLEAR 30 29 96 CALM 30.14R AUGUSTA-BUSH CLEAR 29 25 85 CALM 30.11R AUGUSTA-DANIEL CLEAR 36 28 73 NW3 30.09R SWAINSBORO FAIR 32 30 93 CALM 30.11R VIDALIA CLEAR 36 32 87 W3 30.10S EASTMAN FAIR 36 32 86 CALM 30.14R HAZLEHURST FAIR 38 33 82 CALM 30.11R ALMA CLEAR 38 30 73 NW3 30.11S WAYCROSS CLEAR 40 34 77 N6 30.12S WCI 36 JESUP FAIR 39 34 81 CALM 30.11S BAXLEY FAIR 39 32 75 NW3 30.11S BRUNSWICK CLEAR 37 32 81 W3 30.11R SAINT SIMONS CLEAR 41 30 65 VRB5 30.10R $$ SCZ027-028-034-036>038-045-046-048>050-GAZ119-141-280900- ...LAKE AND SUPPLEMENTAL COASTAL OBSERVATIONS... STATION/POSITION TIME TEMP WIND PRES WAVE SWELL AIR SEA DIR/SP/G HT/PER HT/PER/DIR (UTC) (F) (DEG/KT/KT) (MB) (FT/S) (FT/S/D) UPR LAKE MARION NOT AVBL WINYAH BAY NOT AVBL LAKE MURRAY 0700 34 330/ 3/ 7 1017.6R ACE BASIN NERRS NOT AVBL FORT PULASKI 0700 41 52 310/ 9/ 10 1018.7R SAPELO ISLAND 0700 41 310/ 9 1018.0S $$ ANZ835-935-AMZ111-154-330-350-352-354-370-450-454-472-280900- ...C-MAN AND BUOY OBSERVATIONS... STATION/POSITION TIME TEMP WIND PRES WAVE SWELL AIR SEA DIR/SP/G HT/PER HT/PER/DIR (UTC) (F) (DEG/KT/KT) (MB) (FT/S) (FT/S/D) BUOY 41004 0750 49 67 350/ 19/ 25 1015.8R 4/ 4 2/10 BUOY 41008 0750 46 54 340/ 19/ 23 1017.8R 3/ 4 FOLLY BEACH CMAN 0700 42 350/ 10/ 14 1017.8R CAPERS NEARSHORE 0700 43 360/ 16/ 19 N/A FRIPP NEARSHORE 0700 44 350/ 17/ 19 N/A STATION/POSITION TIME TEMP WIND PRES WAVE SWELL AIR SEA DIR/SP/G HT/PER HT/PER/DIR (UTC) (F) (DEG/KT/KT) (MB) (FT/S) (FT/S/D) 5E ST. MARYS GA 0722 58 N/A 3/ 4 FRYING PAN BUOY 0750 44 65 340/ 21/ 25 1015.8R 5/ 5 2/ 80/13 BUOY 41025 0750 40 58 340/ 19/ 21 1013.5R 8/14 7/ 40/14 CAPE LOOKOUT NC 0700 37 330/ 12/ 14 1014.7R BUOY 41002 0750 53 71 310/ 21/ 29 1012.2R 13/13 8/360/13 BUOY 41010 0720 62 75 320/ 19/ 25 1014.7R ST AUGUSTINE FL 0800 46 330/ 10/ 14 1019.5R $$

USA.gov is the U.S. government's official web portal to all federal, state and local government web resources and services.